| Date | Time | Temp. (oF) | Dew Point (oF) | Rel. Hum. (%) | Press. (in.) | Wind Dir. | Wind Speed (mph) | Hourly Rainfall (in.) |
|
|---|---|---|---|---|---|---|---|---|---|
| 1 | 05/27 | 00:00 | 60 | 59 | 100 | 29.98 | SSW | 2 | 0.00 |
| 2 | 05/26 | 23:00 | 60 | 59 | 99 | 30.00 | SW | 3 | 0.01 |
| 3 | 05/26 | 22:00 | 61 | 59 | 96 | 29.99 | ESE | 1 | 0.01 |
| 4 | 05/26 | 21:00 | 61 | 59 | 95 | 29.98 | NE | 1 | 0.00 |
| 5 | 05/26 | 20:00 | 62 | 60 | 96 | 29.98 | ENE | 4 | 0.00 |
| 6 | 05/26 | 19:00 | 62 | 60 | 96 | 30.00 | SE | 2 | 0.00 |
| 7 | 05/26 | 18:00 | 62 | 60 | 96 | 30.00 | ESE | 5 | 0.00 |
| 8 | 05/26 | 17:00 | 62 | 60 | 96 | 30.01 | SSW | 4 | 0.00 |
| 9 | 05/26 | 16:00 | 62 | 60 | 95 | 30.03 | SSW | 3 | 0.00 |
| 10 | 05/26 | 15:00 | 62 | 61 | 97 | 30.03 | SE | 6 | 0.00 |
| 11 | 05/26 | 14:00 | 62 | 62 | 100 | 30.04 | ENE | 6 | 0.04 |
| 12 | 05/26 | 13:00 | 61 | 60 | 100 | 30.07 | ESE | 1 | 0.01 |
| 13 | 05/26 | 12:00 | 61 | 60 | 100 | 30.07 | NE | 7 | 0.06 |
| 14 | 05/26 | 11:00 | 61 | 60 | 99 | 30.13 | SSE | 4 | 0.05 |
| 15 | 05/26 | 10:00 | 61 | 60 | 100 | 30.09 | E | 3 | 0.06 |
| 16 | 05/26 | 09:00 | 61 | 60 | 100 | 30.10 | SE | 1 | 0.04 |
| 17 | 05/26 | 08:00 | 60 | 59 | 100 | 30.05 | NNE | 3 | 0.05 |
| 18 | 05/26 | 07:00 | 61 | 60 | 100 | 30.09 | E | 6 | 0.09 |
| 19 | 05/26 | 06:00 | 61 | 60 | 99 | 30.07 | ENE | 2 | 0.16 |
| 20 | 05/26 | 05:00 | 62 | 60 | 96 | 30.05 | NE | 1 | 0.00 |
| 21 | 05/26 | 04:00 | 63 | 60 | 93 | 30.06 | NW | 0 | 0.00 |
| 22 | 05/26 | 03:00 | 63 | 60 | 92 | 30.06 | SW | 1 | 0.00 |
| 23 | 05/26 | 02:00 | 62 | 59 | 92 | 30.08 | SSE | 3 | 0.00 |
| 24 | 05/26 | 01:00 | 62 | 60 | 94 | 30.09 | SSE | 2 | 0.00 |